Regional Weather Roundup
Issued by NWS

Home | Current Version | Previous Version | Text Only | Print | Product List | Glossary On
Versions: 1 2 3 4 5 6 7 8 9 10 11 12 13 14 15 16 17 18 19 20 21 22 23 24 25 26 27 28 29 30 31 32 33 34 35 36 37 38 39 40 41 42 43 44 45 46 47 48 49 50
000
ASUS44 KLUB 220101
RWRLUB
WEST TEXAS WEATHER ROUNDUP
NATIONAL WEATHER SERVICE LUBBOCK TX
700 PM CST SUN JAN 21 2018

NOTE: "FAIR" INDICATES FEW OR NO CLOUDS BELOW 12,000 FEET WITH NO
SIGNIFICANT WEATHER AND/OR OBSTRUCTIONS TO VISIBILITY.

TXZ004-006>008-010-012-014-016-OKZ002-220200-
TEXAS PANHANDLE/OKLAHOMA PANHANDLE

CITY           SKY/WX    TMP DP  RH WIND       PRES   REMARKS
AMARILLO       MOCLDY    38  27  64 NW16      29.80R WCI  29
BORGER         MOCLDY    39  26  59 NW15G28   29.78R WCI  31
CANADIAN       PTCLDY    45  29  54 NW21G26   29.74R
DALHART        PTCLDY    32  23  69 N12G23    29.83R WCI  23
DUMAS          PTCLDY    33  23  66 NW17      29.80R WCI  22
GUYMON         CLOUDY    34  28  79 NW21G29   29.74R WCI  22
HEREFORD       CLOUDY    40  26  55 MISG      29.82R
PAMPA          MOCLDY    40  26  56 NW18G26   29.76R WCI  31
PERRYTON       CLEAR     38  29  69 W23       29.71R WCI  28
$$

TXZ026-029-035-045-048-220200-
SOUTHERN PANHANDLE/SOUTH PLAINS/ROLLING PLAINS

CITY           SKY/WX    TMP DP  RH WIND       PRES   REMARKS
CHILDRESS      CLEAR     54  12  18 W16       29.77R
SEMINOLE       CLEAR     47  10  21 W10       29.91R
LUBBOCK        PTCLDY    47  12  24 W25       29.82R
PLAINVIEW      CLEAR     44   8  22 W15       29.79R
SNYDER         PTCLDY    53   4  14 W14       29.88R
$$

TXZ052-054-060>062-072-078-127-140-154-169-220200-
PERMIAN BASIN/CONCHO VALLEY/BIG COUNTRY/EDWARDS PLATEAU

CITY           SKY/WX    TMP DP  RH WIND       PRES   REMARKS
ABILENE        CLOUDY    57   5  12 W16G23    29.86R
BIG SPRING     CLEAR     50   3  14 W10       29.92R
JUNCTION       CLEAR     62  41  46 NW5       29.85R
MIDLAND        CLEAR     52  -1  11 W16       29.92R
ODESSA         CLEAR     51  -2  11 W17       29.93R
SAN ANGELO     MOCLDY    60  17  18 W15       29.89R
SONORA         CLEAR     61  28  29 NW6       29.94R
SWEETWATER     CLEAR     56  -1  10 W16G22    29.90R
WINK           CLEAR     52   5  15 W16G28    29.94R
$$

TXZ055-058-074-075-080-082-220200-
FAR WEST/SOUTHWEST MOUNTAINS/TRANS PECOS

CITY           SKY/WX    TMP DP  RH WIND       PRES   REMARKS
ALPINE         CLEAR     49   0  13 W16       30.03S
DRYDEN           N/A    N/A N/A N/A NW12      29.90R
EL PASO        FAIR      47  10  22 W20G29    30.02R
FORT STOCKTON  CLEAR     54  -1  10 NW12      29.95R
GUADALUPE PASS PTCLDY    40   6  24 W30G37    29.96R WCI  28
MARFA          PTCLDY    47   1  15 W21       30.01S
PECOS          CLEAR     52   2  13 W12G17    29.96R
PRESIDIO       FAIR      59  10  14 NW5       29.99R
$$

TXZ014-016-019-021>030-083-220200
TEXAS TECH WEST TEXAS MESONET/TEXAS PANHANDLE/NORTHERN SOUTH PLAINS

CITY           SKY/WX    TMP DP  RH WIND       PRES   REMARKS
ABERNATHY 5ENE   N/A     47  13  26 W23       29.82R
AMARILLO 9NNE    N/A     38  24  56 NW15      29.80R WCI  30
AMARILLO 7SSE    N/A     40  27  58 NW13      29.81R WCI  33
AMHERST 1NE      N/A     44   6  21 SW16      29.83R
BOOTLEG 11WNW    N/A     35  22  60 N10       29.83R WCI  27
CANADIAN 6E      N/A     45  27  50 W24G33    29.70R
CAPROCK CYN SP   N/A     50   9  18 SW18      29.78R
CHILDRESS 2NNE   N/A     54  12  19 SW15      29.75R
CLARENDON 2WSW   N/A     50  12  21 W17G29    29.73R
CLAUDE 12SW      N/A     42  26  53 NW15      29.76R
DIMMITT 2NE      N/A     43  11  27 W20       29.79R
FLOYDADA 2NNE    N/A     46  12  24 W16       29.80R
FRIONA 2NE       N/A     42  12  29 W21       29.82R
GOODLETT 3W      N/A     54  10  17 SW14      29.75R
HART 3N          N/A     43  10  25 W22       29.79R
HEREFORD 2NW     N/A     39  22  51 N20       29.80R WCI  30
MCLEAN 1E        N/A     47  24  40 NW24      29.71R
MEMPHIS 1NE      N/A     55   9  16 SW18      29.73S
MULESHOE 2SSW    N/A     44  11  26 W20G29    29.82R
OLTON 6S         N/A     43   6  21 SW16      29.81R
PALO DURO SP     N/A     42  27  54 N17       29.79R
PAMPA 2E         N/A     41  25  54 NW23      29.75R
PLAINVIEW 1S     N/A     46   9  22 W13       29.79R
SILVERTON 7ESE   N/A     47   8  20 SW22      29.77R
TULIA 2ENE       N/A     45  12  26 W21       29.77R
TURKEY 2WSW      N/A     51  11  19 SW18      29.76R
UMBARGER 3NNE    N/A     40  28  62 NW22      29.80R WCI  29
$$

TXZ033>036-039>041-045>048-220200
TEXAS TECH WEST TEXAS MESONET/SOUTH PLAINS

CITY           SKY/WX    TMP DP  RH WIND       PRES   REMARKS
AIKEN 3WSW       N/A     46   9  22 SW22      29.80R
ANDREWS 2NE      N/A     51   4  14 W16       29.92R
ANTON 6SSW       N/A     46  11  23 W20       29.84R
BROWNFIELD 2S    N/A     47   5  17 W15       29.87R
DENVR CTY 7WNW   N/A     45   6  20 W13       29.88R
GAIL 2ESE        N/A     52   5  14 W13       29.86S
LAMESA 2SE       N/A     49   8  18 W15       29.89R
LUBBOCK 3WNW     N/A     48  11  22 W18       29.84R
MORTON 1ENE      N/A     44   4  18 W17       29.85R
ODONNELL 1N      N/A     49   2  14 W16       29.86R
PLAINS 3N        N/A     44  10  25 W16       29.88R
RALLS 1SE        N/A     48   8  19 W16       29.83R
REESE CENTER     N/A     46  10  23 W18       29.84R
SEAGRAVES 1SW    N/A     47   7  19 W17       29.88R
SEMINOLE 2NNE    N/A     48   6  17 W12       29.89R
SLATON 2NE       N/A     48   8  19 W13       29.85R
SNYDER 3E        N/A     53   3  13 W13       29.86R
SUNDOWN 8SW      N/A     45  11  25 W16       29.87R
TAHOKA 3NNE      N/A     48   6  18 W14       29.85R
WOLFFORTH 6SSW   N/A     48   7  18 W18       29.85R
$$

TXZ031-032-036>038-042>044-220200-
TEXAS TECH WEST TEXAS MESONET/ROLLING PLAINS

CITY           SKY/WX    TMP DP  RH WIND       PRES   REMARKS
ASPERMONT 3NE    N/A     57  -1   9 SW14      29.82R
FLUVANNA 3WNW    N/A     51   4  15 SW16      29.86R
GRAHAM 5SSW      N/A     51   4  15 W17       29.85R
GUTHRIE 10WSW    N/A     55   4  12 SW13      29.80R
HASKELL 1NW      N/A     58   2  10 W20       29.82R
JAYTON 1SSE      N/A     56   2  11 W13       29.82R
KNOX CITY 3NW    N/A     59   2  10 SW15      29.81R
LK A HENRY 1NW   N/A     53   0  11 W9        29.85R
ODELL 4ENE       N/A     57  10  15 W17       29.74S
PADUCAH 10SW     N/A     54  10  17 W14       29.79R
POST 1NE         N/A     52   3  13 W15       29.84R
RRING SPRGS 3N   N/A     50  12  21 SW13      29.79R
SEYMOUR 3NW      N/A     59   3  10 SW14      29.78R
SPUR 1W          N/A     51   3  14 SW8       29.81R
WEINERT 2NNE     N/A     59   2  10 W22       29.81R
WHITE RVR 6NE    N/A     50   6  16 W14       29.82R
$$

TXZ052-054-060>062-072-078-127-140-154-169-220200-
TEXAS TECH WEST TEXAS MESONET/PERMIAN BASIN/
CONCHO VALLEY/BIG COUNTRY/EDWARDS PLATEAU

CITY           SKY/WX    TMP DP  RH WIND       PRES   REMARKS
COYANOSA 2N      N/A     53  -3  10 NW10      29.95R
JUNCTION 1SSW    N/A     56  41  55 S1        29.86S
MERTZON 3NNE     N/A     58   9  14 W6        29.91R
SAN ANGELO 7NW   N/A     60   2  10 W10       29.89R
STRLNG CT 4WSW   N/A     56  -4   8 W9        29.91R
ST LAWRNCE 5SW   N/A     52  -5   9 W13       29.92R
SWEETWATR 11SW   N/A     55   5  13 W16       29.89R
WALL 1E          N/A     59  25  26 W10       29.89R
$$

TXZ055-058-074-075-080-082-220200-
TEXAS TECH WEST TEXAS MESONET/FAR WEST/SOUTHWEST MOUNTAINS/TRANS PECOS

CITY           SKY/WX    TMP DP  RH WIND       PRES   REMARKS
PRSMN GAP BBNP   N/A     64  14  14 NW9       29.95R
GUADLPE MTN NP   N/A     39   4  23 W10       29.97S WCI  32
$$



USA.gov is the U.S. government's official web portal to all federal, state and local government web resources and services.